Location: Newark
(48.9358°N, 1.4000°E)
Time: 23:18:28
(UTC+00:00)

N. Korean satellite - Pass Details

Date: 18 October 2019
Orbit: 456 x 506 km, 97.2° (Epoch: 16 November)

Event Time Altitude Azimuth Distance (km) Brightness Sun altitude
Rises 17:50:12 0° 202° (SSW) 2,464 10.5 -9.0°
Reaches altitude 10° 17:52:41 10° 222° (SW) 1,598 9.9 -9.4°
Maximum altitude 17:55:08 18° 268° (W) 1,184 9.8 -9.8°
Drops below altitude 10° 17:57:37 10° 314° (NW) 1,616 9.9 -10.3°
Sets 18:00:10 0° 333° (NNW) 2,504 10.5 -10.7°
